Overview Statistics Trail Chart Weather Telemetry Raw packets
 

This is the latest recevied weather packets stored in our database for station/object OE5RBO. If no packets are shown the sender has not sent any weather packets the latest 10 day(s).

<< 30 31 32 33 34 35 36 >>
Time Temp. Humidity Pressure Rain* Wind** Luminosity Snow
1788114699 23.33° C 71% 1015.9 hPa 0 mm - - -
1788114099 23.89° C 70% 1015.8 hPa 0 mm - - -
1788113499 23.89° C 70% 1015.7 hPa 0 mm - - -
1788112899 24.44° C 69% 1015.5 hPa 0 mm - - -
1788112298 24.44° C 67% 1015.5 hPa 0 mm - - -
1788111698 25° C 65% 1015.4 hPa 0 mm - - -
1788109896 26.11° C 63% 1015.4 hPa 0 mm - - -
1788109296 26.67° C 62% 1015.3 hPa 0 mm - - -
1788108696 27.22° C 61% 1015.3 hPa 0 mm - - -
1788108095 27.22° C 60% 1015.4 hPa 0 mm - - -
1788107495 27.78° C 57% 1015.4 hPa 0 mm - - -
1788106294 27.78° C 55% 1015.5 hPa 0 mm - - -
1788105105 28.33° C 54% 1015.6 hPa 0 mm - - -
1788104493 28.33° C 53% 1015.6 hPa 0 mm - - -
1788103893 28.33° C 53% 1015.5 hPa 0 mm - - -
1788103293 30° C 51% 1015.6 hPa 0 mm - - -
1788102692 30.56° C 48% 1015.6 hPa 0 mm - - -
1788102092 31.11° C 45% 1015.6 hPa 0 mm - - -
1788101491 31.11° C 45% 1015.6 hPa 0 mm - - -
1788100894 30.56° C 46% 1015.7 hPa 0 mm - - -
1788100290 31.11° C 45% 1015.7 hPa 0 mm - - -
1788099690 31.11° C 46% 1015.6 hPa 0 mm - - -
1788098490 30.56° C 47% 1015.9 hPa 0 mm - - -
1788097289 28.89° C 49% 1016.2 hPa 0 mm - - -
1788096088 28.89° C 50% 1016.3 hPa 0 mm - - -

* Rain since midnight (hover to see other rain measurements)
** Current wind speed in m/s (hover to see current wind gust speed)